Weather reports worldwide

Advertisment
West Freugh, United Kingdom (3132): temperature & dewpoint: 13.02.2018 14:00:00 - 19.02.2018 14:00:00 (GMT)West Freugh, United Kingdom (3132): temperature -20cm & temperature -100cm: 13.02.2018 14:00:00 - 19.02.2018 14:00:00 (GMT)West Freugh, United Kingdom (3132): wind speed & gusts: 13.02.2018 14:00:00 - 19.02.2018 14:00:00 (GMT)West Freugh, United Kingdom (3132): wind direction: 13.02.2018 14:00:00 - 19.02.2018 14:00:00 (GMT)West Freugh, United Kingdom (3132): reduced air pressure: 13.02.2018 14:00:00 - 19.02.2018 14:00:00 (GMT)West Freugh, United Kingdom (3132): visibility: 13.02.2018 14:00:00 - 19.02.2018 14:00:00 (GMT)West Freugh, United Kingdom (3132): precipitation: 13.02.2018 14:00:00 - 19.02.2018 14:00:00 (GMT)
Date & Time tt [°C] td [°C] tt -20cm [°C] tt -100cm [°C] ff [km/h] ff [kn] fx [km/h] fx [kn] dd ppp [hPa] vv [km] rr [mm]
19.02.2018 14:00:00 - - - - - - - - - - - 0,0
19.02.2018 13:00:00 10,2 9,6 - - 8 4 - - NNW 1018,0 12 0,0
19.02.2018 12:00:00 10,3 9,7 - - 5 3 - - NNW 1017,9 13 0,0
19.02.2018 11:00:00 10,3 9,8 - - 5 3 - - NNW 1017,5 13 0,0
19.02.2018 10:00:00 9,8 9,5 - - 5 3 - - N 1017,1 12 0,0
19.02.2018 09:00:00 9,2 9,0 5,2 5,7 8 4 - - NW 1016,7 11 0,0
19.02.2018 08:00:00 8,9 8,7 - - 4 2 - - N 1016,4 9 0,0
19.02.2018 07:00:00 9,3 9,1 - - 5 3 - - NW 1016,1 10 0,0
19.02.2018 06:00:00 9,7 9,6 - - 11 6 - - WNW 1015,7 11 0,0
19.02.2018 05:00:00 9,4 9,3 - - 13 7 - - W 1015,5 9 0,0
19.02.2018 04:00:00 9,4 9,4 - - 16 9 - - W 1015,3 7 0,0
19.02.2018 03:00:00 9,5 9,5 - - 18 10 - - W 1015,1 5 0,0
19.02.2018 02:00:00 9,2 9,2 - - 16 9 - - W 1015,2 8 0,0
19.02.2018 01:00:00 8,0 8,0 - - 2 1 - - WNW 1015,4 5 0,0
19.02.2018 00:00:00 6,9 6,9 - - 2 1 - - ENE 1015,4 1,8 0,2
18.02.2018 23:00:00 6,9 6,9 - - 2 1 - - NNE 1015,5 2,4 0,4
18.02.2018 22:00:00 6,8 6,8 - - 2 1 - - E 1015,4 2,6 0,6
18.02.2018 21:00:00 6,7 6,7 - - 5 3 - - ESE 1015,4 3,0 0,4
18.02.2018 20:00:00 6,5 6,5 - - 8 4 - - ESE 1015,5 5 1,2
18.02.2018 19:00:00 6,4 6,4 - - 13 7 - - ESE 1015,5 2,4 1,0
18.02.2018 18:00:00 6,3 6,3 - - 16 9 - - SE 1015,7 2,2 1,4
18.02.2018 17:00:00 6,2 6,1 - - 18 10 - - SE 1015,8 2,1 1,4
18.02.2018 16:00:00 6,2 6,1 - - 16 9 - - SE 1016,0 2,1 1,4
18.02.2018 15:00:00 6,9 6,7 - - 18 10 - - SE 1016,4 5 0,6
18.02.2018 14:00:00 6,6 6,3 - - 16 9 - - SE 1016,8 6 0,2
18.02.2018 13:00:00 6,8 6,6 - - 24 13 - - S 1017,0 8 0,0
18.02.2018 12:00:00 6,5 6,3 - - 18 10 - - SE 1017,4 9 0,0
18.02.2018 11:00:00 6,8 6,7 - - 18 10 - - SSE 1017,5 27 0,0
18.02.2018 10:00:00 6,5 6,5 - - 16 9 - - SSE 1017,6 16 0,0
18.02.2018 09:00:00 6,1 6,1 4,7 5,7 16 9 - - SSE 1017,7 40 0,0
18.02.2018 08:00:00 5,5 5,5 - - 11 6 - - SE 1017,9 15 0,0
18.02.2018 07:00:00 4,4 4,4 - - 11 6 - - E 1018,3 10 0,0
18.02.2018 06:00:00 3,5 3,4 - - 5 3 - - ESE 1018,2 3,1 0,0
18.02.2018 05:00:00 3,6 3,6 - - 8 4 - - ENE 1018,5 3,6 0,2
18.02.2018 04:00:00 2,4 2,3 - - 4 2 - - E 1018,5 5 0,0
18.02.2018 03:00:00 1,0 0,8 - - 0 0 - - N 1018,6 6 0,0
18.02.2018 02:00:00 1,5 1,5 - - 5 3 - - E 1018,7 2,2 0,0
18.02.2018 01:00:00 0,3 0,2 - - 8 4 - - W 1019,3 1,1 0,0
18.02.2018 00:00:00 -0,1 -0,4 - - 0 0 - - N 1019,4 0,3 0,0
17.02.2018 23:00:00 1,4 1,3 - - 8 4 - - N 1019,2 4,0 0,0
17.02.2018 22:00:00 0,5 0,1 - - 4 2 - - E 1018,7 0,3 0,0
17.02.2018 21:00:00 1,7 1,3 - - 8 4 - - ESE 1018,6 1,1 0,0
17.02.2018 20:00:00 2,4 2,0 - - 4 2 - - ENE 1018,7 5 0,0
17.02.2018 19:00:00 3,4 2,9 - - 2 1 - - ESE 1018,7 16 0,0
17.02.2018 18:00:00 4,6 3,7 - - 0 0 - - N 1018,3 16 0,0
17.02.2018 17:00:00 6,1 4,3 - - 5 3 - - S 1017,7 28 0,0
17.02.2018 16:00:00 7,2 4,9 - - 15 8 - - SW 1017,4 30 0,0
17.02.2018 15:00:00 8,0 4,8 - - 13 7 - - SSW 1017,2 30 0,0
17.02.2018 14:00:00 7,6 4,9 - - 15 8 - - SW 1017,6 40 0,0
17.02.2018 13:00:00 7,1 4,4 - - 16 9 - - SSW 1017,6 35 0,0
17.02.2018 12:00:00 6,3 4,1 - - 15 8 - - WSW 1017,5 30 0,0
17.02.2018 11:00:00 6,2 3,5 - - 5 3 - - SW 1017,3 45 0,0
17.02.2018 10:00:00 5,6 3,5 - - 8 4 - - WSW 1016,7 40 0,0
17.02.2018 09:00:00 4,8 3,4 4,7 5,7 5 3 - - WSW 1016,3 35 0,0
17.02.2018 08:00:00 4,8 3,3 - - 8 4 - - E 1015,8 40 0,0
17.02.2018 07:00:00 5,2 3,7 - - 9 5 - - S 1015,7 40 0,0
17.02.2018 06:00:00 5,1 3,4 - - 11 6 - - SW 1015,4 35 0,0
17.02.2018 05:00:00 5,1 3,6 - - 11 6 - - SW 1014,9 40 0,0
17.02.2018 04:00:00 5,3 4,0 - - 13 7 - - WSW 1015,0 45 0,0
17.02.2018 03:00:00 5,5 4,7 - - 11 6 - - SW 1014,9 22 0,0
17.02.2018 02:00:00 6,1 5,4 - - 18 10 - - SW 1014,9 14 0,2
17.02.2018 01:00:00 6,4 5,5 - - 34 18 55 30 SSW 1014,7 12 1,2
17.02.2018 00:00:00 6,2 5,0 - - 37 20 59 32 SSW 1015,0 8 1,4
16.02.2018 23:00:00 6,3 5,2 - - 37 20 65 35 SSW 1015,0 5 0,0
16.02.2018 22:00:00 6,5 4,9 - - 42 23 61 33 SSW 1015,1 10 0,4
16.02.2018 21:00:00 6,5 5,6 - - 35 19 54 29 S 1015,3 7 1,4
16.02.2018 20:00:00 7,3 4,6 - - 31 17 57 31 S 1015,7 14 0,0
16.02.2018 19:00:00 7,4 4,1 - - 37 20 54 29 S 1015,7 18 0,0
16.02.2018 18:00:00 7,3 3,8 - - 35 19 50 27 S 1016,0 19 0,0
16.02.2018 17:00:00 7,1 3,9 - - 34 18 50 27 S 1016,2 18 0,0
16.02.2018 16:00:00 7,4 4,9 - - 29 16 - - S 1016,7 18 0,0
16.02.2018 15:00:00 7,7 5,0 - - 34 18 - - S 1017,2 18 0,0
16.02.2018 14:00:00 8,6 5,2 - - 26 14 - - S 1017,8 18 0,0
16.02.2018 13:00:00 8,0 4,7 - - 28 15 - - S 1018,5 24 0,0
16.02.2018 12:00:00 7,5 4,0 - - 28 15 - - SSW 1018,5 35 0,0
16.02.2018 11:00:00 6,4 3,4 - - 26 14 - - SSW 1018,5 25 0,0
16.02.2018 10:00:00 5,8 2,9 - - 16 9 - - SSW 1018,4 25 0,0
16.02.2018 09:00:00 4,4 2,3 4,2 5,7 13 7 - - SSW 1018,4 27 0,0
16.02.2018 08:00:00 3,9 1,8 - - 16 9 - - SW 1017,7 25 0,0
16.02.2018 07:00:00 3,6 1,5 - - 22 12 - - SW 1017,0 21 0,0
16.02.2018 06:00:00 2,9 1,1 - - 21 11 - - WSW 1016,7 26 0,0
16.02.2018 05:00:00 3,0 0,9 - - 28 15 - - SW 1015,9 26 0,0
16.02.2018 04:00:00 3,3 0,9 - - 29 16 - - WSW 1015,6 30 0,0
16.02.2018 03:00:00 3,2 0,6 - - 28 15 - - WSW 1015,3 25 0,0
16.02.2018 02:00:00 3,2 0,5 - - 26 14 - - WSW 1014,9 25 0,0
16.02.2018 01:00:00 2,7 0,0 - - 28 15 - - WSW 1014,2 25 0,0
16.02.2018 00:00:00 2,7 0,1 - - 29 16 46 25 WSW 1013,2 30 0,0
15.02.2018 23:00:00 2,6 -0,1 - - 24 13 - - WSW 1012,4 30 0,0
15.02.2018 22:00:00 2,5 -0,4 - - 28 15 - - WSW 1011,1 40 0,0
15.02.2018 21:00:00 3,0 -0,4 - - 28 15 48 26 WSW 1010,1 25 0,0
15.02.2018 20:00:00 3,8 -0,7 - - 28 15 48 26 WSW 1008,9 30 0,0
15.02.2018 19:00:00 4,3 0,0 - - 22 12 48 26 WSW 1007,9 30 0,0
15.02.2018 18:00:00 4,5 0,2 - - 29 16 52 28 WSW 1006,7 27 0,0
15.02.2018 17:00:00 4,8 -0,2 - - 37 20 59 32 WSW 1005,6 25 0,0
15.02.2018 16:00:00 5,3 -0,5 - - 41 22 59 32 WSW 1004,4 29 0,0
15.02.2018 15:00:00 5,4 -0,3 - - 39 21 59 32 WSW 1003,3 25 0,0
15.02.2018 14:00:00 5,6 -0,3 - - 44 24 59 32 SW 1002,4 26 0,0
15.02.2018 13:00:00 5,8 0,4 - - 41 22 54 29 SW 1002,0 25 0,0
15.02.2018 12:00:00 5,0 -0,5 - - 37 20 55 30 WSW 1001,2 45 0,0
15.02.2018 11:00:00 4,3 0,3 - - 39 21 55 30 SW 1000,0 45 0,0
15.02.2018 10:00:00 3,6 0,2 - - 41 22 57 31 SW 998,9 35 0,0
15.02.2018 09:00:00 3,0 0,1 4,4 5,7 44 24 61 33 SW 997,7 30 0,0
15.02.2018 08:00:00 3,0 -0,1 - - 35 19 55 30 SW 996,9 27 0,0
15.02.2018 07:00:00 3,1 -0,1 - - 35 19 52 28 SW 996,1 30 0,0
15.02.2018 06:00:00 3,5 0,1 - - 34 18 54 29 SW 995,4 30 0,0
15.02.2018 05:00:00 4,2 0,4 - - 41 22 59 32 SW 994,3 30 0,0
15.02.2018 04:00:00 4,6 1,1 - - 35 19 57 31 SW 994,0 30 0,0
15.02.2018 03:00:00 4,5 1,6 - - 35 19 55 30 SW 993,1 45 0,0
15.02.2018 02:00:00 4,7 1,7 - - 31 17 46 25 SW 992,6 35 0,0
15.02.2018 01:00:00 4,8 2,9 - - 29 16 46 25 SW 992,2 40 0,0
15.02.2018 00:00:00 4,3 3,4 - - 22 12 48 26 SW 992,2 30 0,4
14.02.2018 23:00:00 4,1 2,6 - - 39 21 61 33 SW 992,4 4,6 0,8
14.02.2018 22:00:00 5,9 3,7 - - 28 15 - - SSW 991,2 19 0,0
14.02.2018 21:00:00 5,7 2,5 - - 28 15 - - SW 991,1 24 0,0
14.02.2018 20:00:00 6,1 2,9 - - 26 14 - - SW 990,5 18 0,0
14.02.2018 19:00:00 5,9 3,2 - - 24 13 - - SW 990,1 16 0,0
14.02.2018 18:00:00 6,7 3,5 - - 22 12 - - SW 989,5 24 0,0
14.02.2018 17:00:00 6,9 4,4 - - 11 6 - - SW 988,9 20 0,0
14.02.2018 16:00:00 8,3 7,7 - - 31 17 52 28 SSW 987,7 10 0,0
14.02.2018 15:00:00 7,4 6,9 - - 41 22 65 35 S 987,4 7 1,0
14.02.2018 14:00:00 6,8 6,2 - - 39 21 67 36 S 987,8 3,7 0,8
14.02.2018 13:00:00 6,0 5,5 - - 48 26 76 41 S 988,5 7 0,6
14.02.2018 12:00:00 5,7 4,8 - - 52 28 76 41 S 989,3 4,5 0,2
14.02.2018 11:00:00 5,1 4,4 - - 50 27 78 42 SSE 989,9 3,9 0,4
14.02.2018 10:00:00 4,7 3,5 - - 52 28 78 42 SSE 990,7 8 -
14.02.2018 09:00:00 4,6 2,9 4,2 5,7 52 28 74 40 SSE 991,4 6 0,4
14.02.2018 08:00:00 5,1 2,1 - - 46 25 72 39 SSE 992,6 11 0,0
14.02.2018 07:00:00 5,2 1,9 - - 50 27 78 42 SSE 993,4 18 0,0
14.02.2018 06:00:00 5,2 1,7 - - 48 26 68 37 SSE 994,7 20 0,0
14.02.2018 05:00:00 4,8 2,6 - - 41 22 63 34 SSE 995,9 18 0,0
14.02.2018 04:00:00 5,3 1,3 - - 39 21 55 30 S 997,5 35 0,0
14.02.2018 03:00:00 5,0 0,1 - - 34 18 48 26 S 998,4 28 0,0
14.02.2018 02:00:00 4,6 -0,1 - - 29 16 - - S 999,5 40 0,0
14.02.2018 01:00:00 3,9 -0,1 - - 24 13 - - S 1000,7 50 0,0
14.02.2018 00:00:00 3,3 -0,1 - - 22 12 - - S 1001,5 45 0,0
13.02.2018 23:00:00 1,9 -0,6 - - 13 7 - - S 1001,6 45 0,0
13.02.2018 22:00:00 0,0 -2,0 - - 11 6 - - S 1001,8 40 0,0
13.02.2018 21:00:00 0,5 -2,0 - - 11 6 - - SSW 1002,1 45 0,0
13.02.2018 20:00:00 0,7 -2,0 - - 9 5 - - SW 1002,3 45 0,0
13.02.2018 19:00:00 0,8 -1,8 - - 11 6 - - SW 1002,0 45 0,0
13.02.2018 18:00:00 1,1 -2,1 - - 8 4 - - WSW 1001,7 50 0,0
13.02.2018 17:00:00 3,7 -1,2 - - 9 5 - - W 1000,9 30 0,0
13.02.2018 16:00:00 5,0 -1,0 - - 15 8 - - W 1000,1 50 0,0
13.02.2018 15:00:00 4,9 -1,0 - - 24 13 - - W 999,1 40 0,0
13.02.2018 14:00:00 5,7 -1,5 - - 28 15 - - W 998,3 40 0,0

tt = temperature
td = dewpoint
tt -20cm = temperature -20cm
tt -100cm = temperature -100cm
ff = wind speed
fx = gusts
dd = wind direction
ppp = reduced air pressure
vv = visibility
rr = precipitation

Next stations